Location: Antichan
(42.9728°N, 0.6667°E)
Time: 17:40:27
(UTC+00:00)

Cosmos 1862 - Pass Details

Date: 15 August 2020
Orbit: 537 x 557 km, 82.5° (Epoch: 17 September)

Event Time Altitude Azimuth Distance (km) Brightness Sun altitude
Rises 19:19:24 0° 186° (S) 2,725 6.7 -4.3°
Reaches altitude 10° 19:21:33 10° 186° (S) 1,836 5.8 -4.7°
Maximum altitude 19:25:36 89° 107° (ESE) 564 3.4 -5.3°
Drops below altitude 10° 19:29:42 10° 9° (N) 1,852 6.2 -6.0°
Sets 19:31:53 0° 9° (N) 2,751 7.1 -6.4°
